Tracking 19717 objects as of 25-Jun-2019
HD Live streaming from Space Station
objects crossing your sky now

ATLAS 5 CENTAUR R/B

Track ATLAS 5 CENTAUR R/B now!


NORAD ID: 41867
Int'l Code: 2016-071B
Perigee: 7,689.9 km
Apogee: 34,765.5 km
Inclination: 10.5 °
Period: 760.5 minutes
Semi major axis: 27598 km
RCS: Unknown
Launch date: November 19, 2016
Source: United States (US)
Launch site: AIR FORCE EASTERN TEST RANGE (AFETR)

Note: This is a ROCKET BODY
aabbcc
Your satellite tracking list
Your tracking list is empty




NASA's NSSDC Master Catalog

Two Line Element Set (TLE):
1 41867U 16071B   19175.36345297 -.00000053 +00000-0 +00000-0 0  9992
2 41867 010.5096 151.7004 4905223 019.8001 353.9285 01.89352181017923
Source of the keplerian elements: AFSPC